Terminal Aerodrome Forecast
Issued by NWS Charleston, WV

Current Version | Previous Version | Graphics & Text | Print | Product List | Glossary On
Versions: 1 2 3 4 5 6 7 8 9 10 11 12 13 14 15 16 17 18 19 20 21 22 23 24 25
826
FTUS41 KRLX 010259 AAA
TAFEKN
TAF AMD
KEKN 010259Z 0103/0124 16007KT 6SM SHRA BR OVC035
     FM010500 15010G17KT 6SM BR OVC020
     FM010900 18009KT 5SM BR OVC015
     FM011400 21007KT P6SM SHRA OVC035
     FM011600 23007KT P6SM VCTS OVC040CB=

USA.gov is the U.S. government's official web portal to all federal, state and local government web resources and services.